This is the latest recevied weather packets stored in our database for station/object W3AJR. If no packets are shown the sender has not sent any weather packets the latest 10 day(s).
| Time | Temp. | Humidity | Pressure | Rain* | Wind** | Luminosity | Snow |
|---|---|---|---|---|---|---|---|
| 1777516712 | 15.56° C | 99% | 1006.8 hPa | 0 mm | - | 0 W/m² | - |
| 1777516408 | 15.56° C | 99% | 1007.2 hPa | 0 mm | - | 0 W/m² | - |
| 1777516104 | 15.56° C | 99% | 1007.3 hPa | 0 mm | - | 0 W/m² | - |
| 1777515801 | 15.56° C | 99% | 1007.3 hPa | 0 mm | - | 0 W/m² | - |
| 1777515498 | 15.56° C | 99% | 1007.2 hPa | 0 mm | - | 0 W/m² | - |
| 1777515195 | 15.56° C | 99% | 1007.5 hPa | 0 mm | - | 0 W/m² | - |
| 1777514891 | 15.56° C | 99% | 1007.1 hPa | 0 mm | - | 0 W/m² | - |
| 1777514587 | 15.56° C | 99% | 1007.2 hPa | 0 mm | - | 0 W/m² | - |
| 1777514285 | 15.56° C | 99% | 1007.4 hPa | 0 mm | - | 0 W/m² | - |
| 1777513981 | 15.56° C | 99% | 1007.3 hPa | 0 mm | - | 0 W/m² | - |
| 1777513679 | 15.56° C | 99% | 1007.4 hPa | 0 mm | - | 0 W/m² | - |
| 1777513376 | 15.56° C | 99% | 1007.2 hPa | 11.94 mm | - | 0 W/m² | - |
| 1777513071 | 15.56° C | 99% | 1007.3 hPa | 14.99 mm | - | 0 W/m² | - |
| 1777512767 | 15.56° C | 99% | 1007.4 hPa | 1.27 mm | - | 0 W/m² | - |
| 1777512464 | 15.56° C | 99% | 1007.4 hPa | 1.78 mm | - | 0 W/m² | - |
| 1777512161 | 15.56° C | 99% | 1007.4 hPa | 1.78 mm | - | 0 W/m² | - |
| 1777511859 | 15.56° C | 99% | 1007.1 hPa | 0 mm | - | 0 W/m² | - |
| 1777511556 | 15.56° C | 99% | 1007 hPa | 0 mm | - | 0 W/m² | - |
| 1777511253 | 15.56° C | 99% | 1006.7 hPa | 0 mm | - | 0 W/m² | - |
| 1777510948 | 15.56° C | 99% | 1006.9 hPa | 0 mm | - | 0 W/m² | - |
| 1777510645 | 15.56° C | 99% | 1006.9 hPa | 0 mm | - | 0 W/m² | - |
| 1777510341 | 15.56° C | 99% | 1007 hPa | 0 mm | - | 0 W/m² | - |
| 1777510038 | 15.56° C | 99% | 1006.9 hPa | 0 mm | - | 0 W/m² | - |
| 1777509734 | 15.56° C | 99% | 1006.9 hPa | 0 mm | - | 0 W/m² | - |
| 1777509430 | 15.56° C | 99% | 1007 hPa | 0 mm | - | 0 W/m² | - |
* Rain latest hour (hover to see other rain measurements)
** Current wind speed in m/s (hover to see current wind gust speed)